OKEAN-4
1 23317U 94066A   05124.80621481  .00000560  00000-0  67216-4 0 06188
2 23317 082.5376 297.8346 0020775 282.1663 077.7176 14.82129465569486
NOAA-14
1 23455U 94089A   05125.53648792  .00000344  00000-0  20711-3 0  5863
2 23455 099.0926 173.1644 0010399 120.7333 239.4869 14.13561460533477
SICH-1
1 23657U 95046A   05124.79640061  .00000464  00000-0  56549-4 0 04231
2 23657 082.5280 078.6844 0022450 265.6529 094.2130 14.81145454521537
NOAA-15
1 25338U 98030A   05125.50499124  .00000069  00000-0  48126-4 0   270
2 25338 098.5143 135.1397 0011587 121.0706 239.1619 14.24505062362675
RESURS
1 25394U 98043A   05125.84409987  .00000027  00000-0  30412-4 0   803
2 25394 098.5402 196.2554 0000416 292.3101 067.8033 14.24062728354425
FENGYUN1
1 25730U 99025A   05124.90396395  .00000119  00000-0  88141-4 0 04068
2 25730 098.6067 128.4191 0013873 221.6572 138.3544 14.11794164308409
OKEAN-0
1 25860U 99039A   05124.76648079  .00000121  00000-0  25964-4 0 04269
2 25860 097.7612 152.5641 0001413 063.4257 296.7089 14.73238345311618
NOAA-16
1 26536U 00055A   05125.49703315  .00000442  00000-0  26477-3 0  3361
2 26536 099.0099 083.7017 0010642 183.3556 176.7545 14.12236081238039
NOAA-17
1 27453U 02032A   05125.48781939  .00000019  00000-0  27353-4 0  3628
2 27453 098.6611 199.6438 0012311 174.3355 185.7953 14.23658383148767
HUBBLE
1 20580U 90037B   05123.53745982  .00000735  00000-0  45113-4 0 03513
2 20580 028.4670 199.7053 0003960 159.6286 200.4462 14.99691495623537
UARS
1 21701U 91063B   05124.92081318  .00000031  00000-0  20811-4 0 04371
2 21701 056.9822 005.4400 0004235 104.4177 255.7181 15.03812395746986
PO-34
1 25520U 98064B   05124.73629835  .00001086  00000-0  44813-4 0 01784
2 25520 028.4590 242.7775 0005901 112.8412 247.2803 15.16239264359981
ISS
1 25544U 98067A   05125.97651073  .00011953  00000-0  94747-4 0  4046
2 25544 051.6440 117.0508 0007994 085.5155 007.7515 15.71768367369040
WO-39
1 26061U 00004A   03303.41062303  .00002252  00000-0  75720-3 0  9734
2 26061 100.1904 047.3011 0034615 281.6926 078.0378 14.38082544197011
OO-38
1 26063U 00004C   05122.75918236 -.00000058  00000-0  56289-6 0 03435
2 26063 100.2227 334.4785 0036880 182.5750 177.5246 14.35713609275780
NO-45
1 26932U 01043D   05124.90876588 -.00000157  00000-0 -29026-4 0 00240
2 26932 067.0601 338.9140 0008301 253.9398 106.0762 14.29480894187617
